Weather History for Buckeye, AZ

Change the Weather History Date:

Wednesday, August 21, 2013

  Actual Average (KGYR) Record (KGYR)
Temperature  
Mean Temperature 91 °F -  
Max Temperature 98 °F 101 °F 109 °F (2007)
Min Temperature 84 °F 77 °F 37 °F (2001)
Cooling Degree Days 26    
Growing Degree Days 41 (Base 50)    
Moisture  
Dew Point 58 °F    
Average Humidity 32    
Maximum Humidity 42    
Minimum Humidity 24    
Precipitation  
Precipitation 0.00 in - - ()
Sea Level Pressure  
Sea Level Pressure 29.86 in    
Wind  
Wind Speed 8 mph (ESE)    
Max Wind Speed 15 mph    
Max Gust Speed 24 mph    
Visibility 10 miles    
Events      
Averages and records for this station are not official NWS values.
T = Trace of Precipitation, MM = Missing Value Source: NWS Daily Summary

Daily Weather History Graph

Daily Weather History Graph

Search for Another Location

Airport:

Trip Planner

Search our weather history database for the weather conditions in past years. The results will help you decide how hot, cold, wet, or windy it might be!

Date:

Astronomy

Aug. 21, 2013 Rise Set
Actual Time 5:57 AM MST 7:09 PM MST
Civil Twilight 5:31 AM MST 7:35 PM MST
Nautical Twilight 5:00 AM MST 8:05 PM MST
Astronomical Twilight 4:28 AM MST 8:37 PM MST
Moon 7:27 PM MST (8/21) 6:37 AM MST (8/21)
Length of Visible Light 14h 03m
Length of Day
13h 11m
Full, 99% of the Moon is Illuminated
Aug 21
Full
Aug 28
Last Quarter
Sep 5
New
Sep 12
First Quarter
Sep 19
Full

Hourly Weather History & Observations

Time (MST) Temp. Heat Index Dew Point Humidity Pressure Visibility Wind Dir Wind Speed Gust Speed Precip Events Conditions
12:15 AM 91.4 °F 89.4 °F 55.4 °F 29% 29.86 in 10.0 mi ENE 15.0 mph 24.2 mph N/A   Overcast
12:35 AM 91.4 °F 89.4 °F 55.4 °F 29% 29.87 in 10.0 mi East 12.7 mph - N/A   Overcast
12:55 AM 89.6 °F 87.7 °F 55.4 °F 31% 29.87 in 10.0 mi ESE 6.9 mph - N/A   Mostly Cloudy
1:15 AM 89.6 °F 88.1 °F 57.2 °F 33% 29.87 in 10.0 mi East 10.4 mph - N/A   Scattered Clouds
1:35 AM 89.6 °F 88.1 °F 57.2 °F 33% 29.87 in 10.0 mi East 8.1 mph - N/A   Scattered Clouds
1:55 AM 87.8 °F 86.5 °F 57.2 °F 35% 29.86 in 10.0 mi East 10.4 mph - N/A   Overcast
2:15 AM 89.6 °F 88.1 °F 57.2 °F 33% 29.86 in 10.0 mi East 8.1 mph - N/A   Mostly Cloudy
2:35 AM 89.6 °F 88.1 °F 57.2 °F 33% 29.86 in 10.0 mi East 8.1 mph - N/A   Partly Cloudy
2:55 AM 89.6 °F 88.1 °F 57.2 °F 33% 29.85 in 10.0 mi East 8.1 mph - N/A   Mostly Cloudy
3:15 AM 87.8 °F 87.1 °F 59.0 °F 38% 29.85 in 10.0 mi East 9.2 mph - N/A   Overcast
3:35 AM 87.8 °F 86.5 °F 57.2 °F 35% 29.85 in 10.0 mi East 8.1 mph - N/A   Overcast
3:55 AM 87.8 °F 86.5 °F 57.2 °F 35% 29.85 in 10.0 mi ENE 9.2 mph - N/A   Overcast
4:15 AM 87.8 °F 86.5 °F 57.2 °F 35% 29.84 in 10.0 mi ENE 6.9 mph - N/A   Overcast
4:35 AM 87.8 °F 86.5 °F 57.2 °F 35% 29.85 in 10.0 mi ENE 8.1 mph - N/A   Overcast
4:55 AM 87.8 °F 86.5 °F 57.2 °F 35% 29.85 in 10.0 mi East 8.1 mph - N/A   Overcast
5:15 AM 86.0 °F 84.9 °F 57.2 °F 37% 29.85 in 10.0 mi East 5.8 mph - N/A   Overcast
5:35 AM 86.0 °F 84.9 °F 57.2 °F 37% 29.85 in 10.0 mi East 8.1 mph - N/A   Overcast
5:55 AM 87.8 °F 86.5 °F 57.2 °F 35% 29.86 in 10.0 mi East 4.6 mph - N/A   Overcast
6:15 AM 86.0 °F 84.9 °F 57.2 °F 37% 29.86 in 10.0 mi East 5.8 mph - N/A   Overcast
6:35 AM 86.0 °F 85.4 °F 59.0 °F 40% 29.87 in 10.0 mi East 3.5 mph - N/A   Overcast
6:55 AM 84.2 °F 83.8 °F 59.0 °F 42% 29.87 in 10.0 mi ESE 3.5 mph - N/A   Mostly Cloudy
7:15 AM 84.2 °F 83.8 °F 59.0 °F 42% 29.88 in 9.0 mi Calm Calm - N/A   Clear
7:35 AM 86.0 °F 85.4 °F 59.0 °F 40% 29.88 in 10.0 mi Calm Calm - N/A   Clear
7:55 AM 87.8 °F 87.1 °F 59.0 °F 38% 29.89 in 10.0 mi Calm Calm - N/A   Clear
8:15 AM 89.6 °F 89.5 °F 60.8 °F 38% 29.90 in 10.0 mi East 5.8 mph - N/A   Clear
8:35 AM 89.6 °F 89.5 °F 60.8 °F 38% 29.91 in 8.0 mi East 11.5 mph - N/A   Clear
8:55 AM 91.4 °F 90.7 °F 59.0 °F 34% 29.91 in 10.0 mi East 13.8 mph - N/A   Clear
9:15 AM 91.4 °F 89.9 °F 57.2 °F 31% 29.91 in 10.0 mi East 15.0 mph - N/A   Partly Cloudy
9:35 AM 91.4 °F 89.9 °F 57.2 °F 31% 29.92 in 10.0 mi East 10.4 mph - N/A   Partly Cloudy
9:55 AM 91.4 °F 90.7 °F 59.0 °F 34% 29.93 in 10.0 mi East 6.9 mph - N/A   Clear
10:15 AM 89.6 °F 90.1 °F 62.6 °F 40% 29.93 in 10.0 mi East 8.1 mph - N/A   Clear
10:35 AM 93.2 °F 91.9 °F 57.2 °F 30% 29.93 in 10.0 mi East 10.4 mph - N/A   Clear
10:55 AM 93.2 °F 94.9 °F 64.4 °F 38% 29.93 in 10.0 mi SSE 10.4 mph - N/A   Clear
11:15 AM 91.4 °F 91.4 °F 60.8 °F 36% 29.93 in 10.0 mi SE 6.9 mph - N/A   Clear
11:35 AM 93.2 °F 94.1 °F 62.6 °F 36% 29.93 in 10.0 mi South 6.9 mph - N/A   Clear
11:55 AM 93.2 °F 93.3 °F 60.8 °F 34% 29.93 in 10.0 mi SSE 5.8 mph - N/A   Clear
12:15 PM 93.2 °F 93.3 °F 60.8 °F 34% 29.92 in 10.0 mi SE 5.8 mph - N/A   Clear
12:35 PM 93.2 °F 93.3 °F 60.8 °F 34% 29.91 in 10.0 mi South 4.6 mph - N/A   Partly Cloudy
12:55 PM 93.2 °F 92.6 °F 59.0 °F 32% 29.91 in 10.0 mi South 4.6 mph - N/A   Clear
1:15 PM 95.0 °F 93.7 °F 57.2 °F 28% 29.90 in 10.0 mi South 4.6 mph - N/A   Clear
1:35 PM 95.0 °F 93.7 °F 57.2 °F 28% 29.90 in 10.0 mi South 5.8 mph - N/A   Clear
1:55 PM 95.0 °F 94.4 °F 59.0 °F 30% 29.89 in 10.0 mi SSE 5.8 mph - N/A   Clear
2:15 PM 95.0 °F 93.7 °F 57.2 °F 28% 29.88 in 10.0 mi South 4.6 mph - N/A   Clear
2:35 PM 95.0 °F 93.7 °F 57.2 °F 28% 29.87 in 10.0 mi SSE 5.8 mph - N/A   Clear
2:55 PM 96.8 °F 95.1 °F 55.4 °F 25% 29.86 in 10.0 mi SSE 4.6 mph - N/A   Clear
3:15 PM 96.8 °F 95.8 °F 57.2 °F 27% 29.85 in 10.0 mi SSE 3.5 mph - N/A   Clear
3:35 PM 96.8 °F 95.8 °F 57.2 °F 27% 29.83 in 10.0 mi SSE 4.6 mph - N/A   Clear
3:55 PM 96.8 °F 95.1 °F 55.4 °F 25% 29.82 in 10.0 mi South 4.6 mph - N/A   Clear
4:15 PM 98.6 °F 97.2 °F 55.4 °F 24% 29.81 in 10.0 mi SSE 5.8 mph - N/A   Clear
4:35 PM 98.6 °F 97.2 °F 55.4 °F 24% 29.80 in 10.0 mi SE 5.8 mph - N/A   Clear
4:55 PM 96.8 °F 95.8 °F 57.2 °F 27% 29.80 in 10.0 mi SE 5.8 mph - N/A   Clear
5:15 PM 96.8 °F 95.1 °F 55.4 °F 25% 29.80 in 10.0 mi East 8.1 mph - N/A   Clear
5:35 PM 95.0 °F 93.7 °F 57.2 °F 28% 29.80 in 10.0 mi East 6.9 mph - N/A   Clear
5:55 PM 95.0 °F 93.7 °F 57.2 °F 28% 29.80 in 10.0 mi ESE 6.9 mph - N/A   Clear
6:15 PM 95.0 °F 93.7 °F 57.2 °F 28% 29.81 in 10.0 mi ESE 4.6 mph - N/A   Clear
6:35 PM 93.2 °F 93.3 °F 60.8 °F 34% 29.82 in 10.0 mi SSE 4.6 mph - N/A   Clear
6:55 PM 93.2 °F 93.3 °F 60.8 °F 34% 29.82 in 10.0 mi SSE 4.6 mph - N/A   Clear
7:15 PM 93.2 °F 92.6 °F 59.0 °F 32% 29.82 in 10.0 mi SE 3.5 mph - N/A   Mostly Cloudy
7:35 PM 93.2 °F 92.6 °F 59.0 °F 32% 29.83 in 10.0 mi Calm Calm - N/A   Overcast
7:55 PM 93.2 °F 91.9 °F 57.2 °F 30% 29.83 in 10.0 mi ESE 3.5 mph - N/A   Overcast
8:15 PM 93.2 °F 91.9 °F 57.2 °F 30% 29.83 in 10.0 mi East 5.8 mph - N/A   Overcast
8:35 PM 93.2 °F 91.9 °F 57.2 °F 30% 29.84 in 10.0 mi ENE 5.8 mph - N/A   Overcast
8:55 PM 93.2 °F 91.9 °F 57.2 °F 30% 29.84 in 10.0 mi Calm Calm - N/A   Overcast
9:15 PM 93.2 °F 91.3 °F 55.4 °F 28% 29.85 in 10.0 mi NE 6.9 mph - N/A   Overcast
9:35 PM 93.2 °F 91.3 °F 55.4 °F 28% 29.85 in 10.0 mi ENE 6.9 mph - N/A   Overcast
9:55 PM 93.2 °F 91.3 °F 55.4 °F 28% 29.86 in 10.0 mi East 9.2 mph - N/A   Overcast
10:15 PM 93.2 °F 91.3 °F 55.4 °F 28% 29.86 in 10.0 mi East 8.1 mph - N/A   Overcast
10:35 PM 91.4 °F 89.9 °F 57.2 °F 31% 29.86 in 10.0 mi East 6.9 mph - N/A   Overcast
10:55 PM 91.4 °F 89.4 °F 55.4 °F 29% 29.86 in 10.0 mi East 3.5 mph - N/A   Overcast
11:15 PM 91.4 °F 89.4 °F 55.4 °F 29% 29.87 in 10.0 mi East 6.9 mph - N/A   Overcast
11:35 PM 91.4 °F 89.4 °F 55.4 °F 29% 29.87 in 10.0 mi East 6.9 mph - N/A   Overcast
11:55 PM 89.6 °F 88.1 °F 57.2 °F 33% 29.87 in 10.0 mi ESE 5.8 mph - N/A   Overcast